BIOMASS (63772 NORAD) Tracking and Keplerian Element Data

This shows tracking and keplerian element data for the satellite.

Feedback or suggestion? Click here.




ElementValue
Catalog63772
NameBIOMASS
Epoch Orbit3441
Epoch Day354.04950246
Epoch Year2025
RAAN178.9528
Inclination98.07
Eccentricity0.0001083
Argument of Perigee80.9367
Mean Anonmoly279.196
Mean Motion14.67536115
Decay Rate7.3E-06
L11 63772U 25090A 25354.04950246 .00000730 00000+0 13710-3 0 9994
L22 63772 98.0700 178.9528 0001083 80.9367 279.1960 14.67536115 34411



Live tracking and technical data element details for BIOMASS (NORAD 63772). BIOMASS can be tracked NOW for your location showing map with azimuth and elevation plus other details from your city location.







IsCatalogInMostPopularTable: catalog: 63772, numindb: 16
Update: records affected: 1



GetName: 63772 BIOMASS

Hit Count: updated at: Mon, 20 Apr 2026 10:49:27 GMT